Time,TemperatureF,DewpointF,PressureIn,WindDirection,WindDirectionDegrees,WindSpeedMPH,WindSpeedGustMPH,Humidity,HourlyPrecipIn,Conditions,Clouds,dailyrainin,SoftwareType,DateUTC
2013-06-02 00:01:00,77.0,63.4,29.75,ENE,68,0.0,0.0,63,0.00,CLR,,0.00,WeatherDisplay:10.37,2013-06-02 04:01:00,
2013-06-02 00:06:00,76.8,63.2,29.75,NE,45,3.7,3.7,63,0.00,CLR,,0.00,WeatherDisplay:10.37,2013-06-02 04:06:00,
2013-06-02 11:55:00,89.1,68.0,29.67,SE,135,8.1,8.1,50,0.00,CLR,,0.00,WeatherDisplay:10.37,2013-06-02 15:55:00,
2013-06-02 12:00:00,89.4,67.1,29.67,West,270,13.8,13.8,48,0.00,CLR,,0.00,WeatherDisplay:10.37,2013-06-02 16:00:00,
2013-06-02 12:05:00,89.1,68.0,29.66,South,180,7.8,7.8,50,0.00,CLR,,0.00,WeatherDisplay:10.37,2013-06-02 16:05:00,
2013-06-02 12:10:00,89.8,68.7,29.66,ESE,112,5.8,5.8,50,0.00,CLR,,0.00,WeatherDisplay:10.37,2013-06-02 16:10:00,
2013-06-02 12:15:00,90.3,68.5,29.66,South,180,5.8,5.8,49,0.00,CLR,,0.00,WeatherDisplay:10.37,2013-06-02 16:15:00,
2013-06-02 12:20:00,90.3,67.9,29.66,East,90,10.9,10.9,48,0.00,CLR,,0.00,WeatherDisplay:10.37,2013-06-02 16:20:00,
2013-06-02 12:25:00,89.6,67.3,29.66,South,180,10.4,10.4,48,0.00,CLR,,0.00,WeatherDisplay:10.37,2013-06-02 16:25:00,
2013-06-02 12:30:00,90.0,68.3,29.66,ESE,112,10.4,10.4,49,0.00,CLR,,0.00,WeatherDisplay:10.37,2013-06-02 16:30:00,
2013-06-02 12:35:00,90.0,67.7,29.66,SSE,158,8.1,8.1,48,0.00,CLR,,0.00,WeatherDisplay:10.37,2013-06-02 16:35:00,
2013-06-02 12:40:00,89.6,67.3,29.66,ESE,112,9.2,9.2,48,0.00,CLR,,0.00,WeatherDisplay:10.37,2013-06-02 16:40:00,
2013-06-02 12:45:00,89.8,67.5,29.66,SSE,158,8.1,8.1,48,0.00,CLR,,0.00,WeatherDisplay:10.37,2013-06-02 16:45:00,
2013-06-02 12:50:00,90.5,68.1,29.65,West,270,5.8,5.8,48,0.00,CLR,,0.00,WeatherDisplay:10.37,2013-06-02 16:50:00,
2013-06-02 12:55:00,90.9,68.5,29.65,East,90,6.9,6.9,48,0.00,CLR,,0.00,WeatherDisplay:10.37,2013-06-02 16:55:00,
2013-06-02 13:00:00,90.5,68.1,29.65,NNE,22,5.3,5.3,48,0.00,CLR,,0.00,WeatherDisplay:10.37,2013-06-02 17:00:00,
2013-06-02 13:05:00,90.7,68.3,29.65,NE,45,5.8,5.8,48,0.00,CLR,,0.00,WeatherDisplay:10.37,2013-06-02 17:05:00,
2013-06-02 13:10:00,91.0,68.6,29.65,South,180,5.8,5.8,48,0.00,CLR,,0.00,WeatherDisplay:10.37,2013-06-02 17:10:00,
2013-06-02 13:15:00,90.9,67.9,29.65,West,270,4.6,4.6,47,0.00,CLR,,0.00,WeatherDisplay:10.37,2013-06-02 17:15:00,
2013-06-02 13:20:00,90.7,68.3,29.65,NNE,22,2.3,3.8,48,0.00,CLR,,0.00,WeatherDisplay:10.37,2013-06-02 17:20:00,
2013-06-02 13:25:00,90.7,67.7,29.64,East,90,8.1,8.1,47,0.00,CLR,,0.00,WeatherDisplay:10.37,2013-06-02 17:25:00,
2013-06-02 13:30:00,90.0,66.4,29.64,South,180,5.8,5.8,46,0.00,CLR,,0.00,WeatherDisplay:10.37,2013-06-02 17:30:00,
2013-06-02 13:35:00,91.0,67.3,29.64,ENE,68,6.9,6.9,46,0.00,CLR,,0.00,WeatherDisplay:10.37,2013-06-02 17:35:00,
2013-06-02 13:41:00,90.7,65.8,29.64,SE,135,10.4,10.4,44,0.00,CLR,,0.00,WeatherDisplay:10.37,2013-06-02 17:41:00,
2013-06-02 13:46:00,90.9,66.0,29.64,ESE,112,7.3,7.3,44,0.00,CLR,,0.00,WeatherDisplay:10.37,2013-06-02 17:46:00,
2013-06-02 13:51:00,90.7,66.4,29.63,NE,45,6.9,6.9,45,0.00,CLR,,0.00,WeatherDisplay:10.37,2013-06-02 17:51:00,
2013-06-02 13:56:00,90.9,66.0,29.63,ESE,112,8.1,8.1,44,0.00,CLR,,0.00,WeatherDisplay:10.37,2013-06-02 17:56:00,
2013-06-02 14:01:00,91.4,65.1,29.63,SSE,158,7.3,7.6,42,0.00,CLR,,0.00,WeatherDisplay:10.37,2013-06-02 18:01:00,
2013-06-02 14:06:00,91.2,64.2,29.62,West,270,10.4,10.4,41,0.00,CLR,,0.00,WeatherDisplay:10.37,2013-06-02 18:06:00,
2013-06-02 14:11:00,90.9,63.9,29.62,ESE,112,9.4,9.4,41,0.00,CLR,,0.00,WeatherDisplay:10.37,2013-06-02 18:11:00,
2013-06-02 14:16:00,91.2,64.2,29.61,ESE,112,4.6,4.6,41,0.00,CLR,,0.00,WeatherDisplay:10.37,2013-06-02 18:16:00,
2013-06-02 14:21:00,90.9,64.6,29.61,ENE,68,5.8,5.8,42,0.00,CLR,,0.00,WeatherDisplay:10.37,2013-06-02 18:21:00,
2013-06-02 14:26:00,91.8,65.4,29.61,ESE,112,6.9,6.9,42,0.00,CLR,,0.00,WeatherDisplay:10.37,2013-06-02 18:26:00,
2013-06-02 14:31:00,91.4,65.1,29.61,NNE,22,8.1,8.1,42,0.00,CLR,,0.00,WeatherDisplay:10.37,2013-06-02 18:31:00,
2013-06-02 14:36:00,92.1,65.0,29.61,NNE,22,8.1,8.1,41,0.00,CLR,,0.00,WeatherDisplay:10.37,2013-06-02 18:36:00,
2013-06-02 14:41:00,91.6,64.6,29.61,ESE,112,4.7,4.7,41,0.00,CLR,,0.00,WeatherDisplay:10.37,2013-06-02 18:41:00,
2013-06-02 14:46:00,90.7,63.1,29.61,ESE,112,11.5,11.5,40,0.00,CLR,,0.00,WeatherDisplay:10.37,2013-06-02 18:46:00,
2013-06-02 14:51:00,90.7,63.1,29.60,South,180,13.5,13.5,40,0.00,CLR,,0.00,WeatherDisplay:10.37,2013-06-02 18:51:00,
2013-06-02 14:56:00,91.6,63.9,29.60,ESE,112,5.8,5.8,40,0.00,CLR,,0.00,WeatherDisplay:10.37,2013-06-02 18:56:00,
2013-06-02 15:01:00,91.2,63.5,29.60,South,180,5.8,5.8,40,0.00,CLR,,0.00,WeatherDisplay:10.37,2013-06-02 19:01:00,
2013-06-02 15:06:00,91.0,63.3,29.60,ESE,112,5.8,5.8,40,0.00,CLR,,0.00,WeatherDisplay:10.37,2013-06-02 19:06:00,
2013-06-02 15:11:00,90.9,63.2,29.60,South,180,6.3,6.3,40,0.00,CLR,,0.00,WeatherDisplay:10.37,2013-06-02 19:11:00,
2013-06-02 15:16:00,90.3,63.4,29.60,NNE,22,9.2,9.2,41,0.00,CLR,,0.00,WeatherDisplay:10.37,2013-06-02 19:16:00,
2013-06-02 15:21:00,90.5,63.6,29.60,NNE,22,11.5,11.5,41,0.00,CLR,,0.00,WeatherDisplay:10.37,2013-06-02 19:21:00,
2013-06-02 15:26:00,90.7,64.5,29.60,NE,45,5.8,5.8,42,0.00,CLR,,0.00,WeatherDisplay:10.37,2013-06-02 19:26:00,
2013-06-02 15:31:00,90.1,63.9,29.60,SSE,158,10.4,10.4,42,0.00,CLR,,0.00,WeatherDisplay:10.37,2013-06-02 19:31:00,
2013-06-02 15:36:00,90.0,63.8,29.60,ESE,112,9.2,9.2,42,0.00,CLR,,0.00,WeatherDisplay:10.37,2013-06-02 19:36:00,
2013-06-02 15:41:00,90.0,64.5,29.59,NNE,22,11.5,11.5,43,0.00,CLR,,0.00,WeatherDisplay:10.37,2013-06-02 19:41:00,
2013-06-02 15:46:00,90.0,65.2,29.59,ESE,112,10.4,10.4,44,0.00,CLR,,0.00,WeatherDisplay:10.37,2013-06-02 19:46:00,
2013-06-02 15:51:00,90.1,65.2,29.59,SSE,158,10.4,10.4,44,0.00,CLR,,0.00,WeatherDisplay:10.37,2013-06-02 19:51:00,
2013-06-02 15:56:00,90.1,64.6,29.59,ENE,68,6.9,6.9,43,0.00,CLR,,0.00,WeatherDisplay:10.37,2013-06-02 19:56:00,
2013-06-02 16:01:00,89.4,64.0,29.59,East,90,8.8,8.8,43,0.00,CLR,,0.00,WeatherDisplay:10.37,2013-06-02 20:01:00,
2013-06-02 16:06:00,90.3,64.8,29.60,ESE,112,9.2,9.2,43,0.00,CLR,,0.00,WeatherDisplay:10.37,2013-06-02 20:06:00,
2013-06-02 16:11:00,90.3,64.8,29.60,ESE,112,14.0,14.0,43,0.00,CLR,,0.00,WeatherDisplay:10.37,2013-06-02 20:11:00,
2013-06-02 16:16:00,91.2,64.2,29.59,East,90,10.4,10.4,41,0.00,CLR,,0.00,WeatherDisplay:10.37,2013-06-02 20:16:00,
2013-06-02 16:21:00,90.1,63.9,29.59,NE,45,9.2,9.2,42,0.00,CLR,,0.00,WeatherDisplay:10.37,2013-06-02 20:21:00,
2013-06-02 16:26:00,91.0,64.7,29.59,ENE,68,8.1,8.1,42,0.00,CLR,,0.00,WeatherDisplay:10.37,2013-06-02 20:26:00,
2013-06-02 16:31:00,90.7,64.5,29.59,West,270,5.8,5.8,42,0.00,CLR,,0.00,WeatherDisplay:10.37,2013-06-02 20:31:00,
2013-06-02 16:36:00,91.6,65.3,29.59,SSE,158,4.6,4.6,42,0.00,CLR,,0.00,WeatherDisplay:10.37,2013-06-02 20:36:00,
2013-06-02 16:41:00,90.5,64.9,29.58,South,180,9.9,9.9,43,0.00,CLR,,0.00,WeatherDisplay:10.37,2013-06-02 20:41:00,
2013-06-02 16:46:00,90.3,64.8,29.58,ESE,112,8.1,8.1,43,0.00,CLR,,0.00,WeatherDisplay:10.37,2013-06-02 20:46:00,
2013-06-02 16:51:00,89.6,65.4,29.58,ESE,112,5.8,5.8,45,0.00,CLR,,0.00,WeatherDisplay:10.37,2013-06-02 20:51:00,
2013-06-02 16:56:00,89.8,65.0,29.58,NE,45,3.7,3.7,44,0.00,CLR,,0.00,WeatherDisplay:10.37,2013-06-02 20:56:00,
2013-06-02 17:01:00,90.7,65.1,29.58,SE,135,5.8,5.8,43,0.00,CLR,,0.00,WeatherDisplay:10.37,2013-06-02 21:01:00,
2013-06-02 17:06:00,89.8,63.6,29.59,ENE,68,7.3,7.3,42,0.00,CLR,,0.00,WeatherDisplay:10.37,2013-06-02 21:06:00,
2013-06-02 17:11:00,89.6,64.1,29.59,South,180,9.2,9.2,43,0.00,CLR,,0.00,WeatherDisplay:10.37,2013-06-02 21:11:00,
2013-06-02 17:16:00,90.3,64.8,29.60,West,270,5.8,5.8,43,0.00,CLR,,0.00,WeatherDisplay:10.37,2013-06-02 21:16:00,
2013-06-02 17:21:00,89.6,64.8,29.60,SE,135,6.3,6.3,44,0.00,CLR,,0.00,WeatherDisplay:10.37,2013-06-02 21:21:00,
2013-06-02 17:26:00,89.4,64.6,29.59,South,180,10.4,10.4,44,0.00,CLR,,0.00,WeatherDisplay:10.37,2013-06-02 21:26:00,
2013-06-02 17:31:00,89.1,65.0,29.59,SSE,158,9.2,9.2,45,0.00,CLR,,0.00,WeatherDisplay:10.37,2013-06-02 21:31:00,
2013-06-02 17:36:00,88.9,65.4,29.59,SSE,158,2.7,2.7,46,0.00,CLR,,0.00,WeatherDisplay:10.37,2013-06-02 21:36:00,
2013-06-02 17:41:00,88.2,66.0,29.59,NNE,22,6.9,6.9,48,0.00,CLR,,0.00,WeatherDisplay:10.37,2013-06-02 21:41:00,
2013-06-02 17:46:00,86.9,65.4,29.59,South,180,10.4,10.4,49,0.00,CLR,,0.00,WeatherDisplay:10.37,2013-06-02 21:46:00,
2013-06-02 17:51:00,86.0,66.3,29.59,NNE,22,5.8,5.8,52,0.00,CLR,,0.00,WeatherDisplay:10.37,2013-06-02 21:51:00,
2013-06-02 17:56:00,86.0,66.3,29.59,South,180,7.3,7.3,52,0.00,CLR,,0.00,WeatherDisplay:10.37,2013-06-02 21:56:00,
2013-06-02 18:01:00,85.1,66.0,29.59,SSE,158,5.8,5.8,53,0.00,CLR,,0.00,WeatherDisplay:10.37,2013-06-02 22:01:00,
2013-06-02 18:06:00,85.5,66.4,29.60,East,90,5.8,5.8,53,0.00,CLR,,0.00,WeatherDisplay:10.37,2013-06-02 22:06:00,
2013-06-02 18:11:00,84.9,65.9,29.60,NNE,22,4.6,4.6,53,0.00,CLR,,0.00,WeatherDisplay:10.37,2013-06-02 22:11:00,
2013-06-02 18:16:00,84.7,66.2,29.61,SSE,158,3.5,3.5,54,0.00,CLR,,0.00,WeatherDisplay:10.37,2013-06-02 22:16:00,
2013-06-02 18:21:00,84.4,65.9,29.61,NE,45,3.5,3.5,54,0.00,CLR,,0.00,WeatherDisplay:10.37,2013-06-02 22:21:00,
2013-06-02 18:26:00,84.2,65.8,29.63,SE,135,9.2,9.2,54,0.00,CLR,,0.00,WeatherDisplay:10.37,2013-06-02 22:26:00,
2013-06-02 18:31:00,84.2,65.8,29.63,NE,45,5.8,5.8,54,0.00,CLR,,0.00,WeatherDisplay:10.37,2013-06-02 22:31:00,
2013-06-02 18:36:00,83.7,65.8,29.63,NNE,22,4.2,4.2,55,0.00,CLR,,0.00,WeatherDisplay:10.37,2013-06-02 22:36:00,
2013-06-02 18:41:00,83.5,65.6,29.63,SSE,158,4.2,4.2,55,0.00,CLR,,0.00,WeatherDisplay:10.37,2013-06-02 22:41:00,
2013-06-02 18:46:00,83.3,65.4,29.63,ENE,68,4.6,4.6,55,0.00,CLR,,0.00,WeatherDisplay:10.37,2013-06-02 22:46:00,
2013-06-02 18:51:00,83.3,65.4,29.63,ESE,112,2.3,2.3,55,0.00,CLR,,0.00,WeatherDisplay:10.37,2013-06-02 22:51:00,
2013-06-02 18:56:00,82.9,65.6,29.63,NE,45,2.3,2.3,56,0.00,CLR,,0.00,WeatherDisplay:10.37,2013-06-02 22:56:00,
2013-06-02 19:01:00,83.1,65.8,29.63,ESE,112,4.2,4.2,56,0.00,CLR,,0.00,WeatherDisplay:10.37,2013-06-02 23:01:00,
2013-06-02 19:06:00,82.6,65.3,29.63,South,180,5.8,5.8,56,0.00,CLR,,0.00,WeatherDisplay:10.37,2013-06-02 23:06:00,
2013-06-02 19:11:00,82.4,65.1,29.63,South,180,4.7,4.7,56,0.00,CLR,,0.00,WeatherDisplay:10.37,2013-06-02 23:11:00,
2013-06-02 19:16:00,82.2,64.9,29.64,East,90,3.5,3.5,56,0.00,CLR,,0.00,WeatherDisplay:10.37,2013-06-02 23:16:00,
2013-06-02 19:21:00,81.7,65.0,29.64,SSE,158,4.7,4.7,57,0.00,CLR,,0.00,WeatherDisplay:10.37,2013-06-02 23:21:00,
2013-06-02 19:27:00,81.9,65.2,29.64,ENE,68,2.7,2.7,57,0.00,CLR,,0.00,WeatherDisplay:10.37,2013-06-02 23:27:00,
2013-06-02 19:32:00,81.7,65.0,29.64,NNE,22,3.5,3.5,57,0.00,CLR,,0.00,WeatherDisplay:10.37,2013-06-02 23:32:00,
2013-06-02 19:37:00,81.5,64.8,29.64,WNW,292,3.5,3.5,57,0.00,CLR,,0.00,WeatherDisplay:10.37,2013-06-02 23:37:00,
2013-06-02 19:42:00,81.3,64.6,29.66,ESE,112,2.3,2.9,57,0.00,CLR,,0.00,WeatherDisplay:10.37,2013-06-02 23:42:00,
2013-06-02 19:47:00,81.3,64.6,29.66,NE,45,1.2,0.0,57,0.00,CLR,,0.00,WeatherDisplay:10.37,2013-06-02 23:47:00,
2013-06-02 19:52:00,80.6,64.0,29.66,South,180,2.3,2.3,57,0.00,CLR,,0.00,WeatherDisplay:10.37,2013-06-02 23:52:00,
2013-06-02 19:57:00,79.7,63.6,29.66,ENE,68,0.0,0.0,58,0.00,CLR,,0.00,WeatherDisplay:10.37,2013-06-02 23:57:00,
2013-06-02 20:02:00,78.6,64.0,29.67,West,270,2.3,2.3,61,0.00,CLR,,0.00,WeatherDisplay:10.37,2013-06-03 00:02:00,
2013-06-02 20:07:00,77.5,63.9,29.67,ESE,112,2.3,2.3,63,0.00,CLR,,0.00,WeatherDisplay:10.37,2013-06-03 00:07:00,
2013-06-02 20:12:00,76.8,64.1,29.67,ENE,68,0.0,0.0,65,0.00,CLR,,0.00,WeatherDisplay:10.37,2013-06-03 00:12:00,
2013-06-02 20:17:00,75.9,64.6,29.67,West,270,2.7,2.7,68,0.00,CLR,,0.00,WeatherDisplay:10.37,2013-06-03 00:17:00,
2013-06-02 20:22:00,75.6,65.5,29.67,NE,45,0.0,0.0,71,0.00,CLR,,0.00,WeatherDisplay:10.37,2013-06-03 00:22:00,
2013-06-02 20:27:00,74.8,66.0,29.68,South,180,2.3,2.3,74,0.00,CLR,,0.00,WeatherDisplay:10.37,2013-06-03 00:27:00,
2013-06-02 20:32:00,74.1,65.7,29.68,East,90,2.3,2.3,75,0.00,CLR,,0.00,WeatherDisplay:10.37,2013-06-03 00:32:00,
2013-06-02 20:37:00,73.8,66.1,29.68,WNW,292,0.0,0.0,77,0.01,RA,,0.01,WeatherDisplay:10.37,2013-06-03 00:37:00,
2013-06-02 20:42:00,73.2,66.3,29.67,ESE,112,0.0,0.0,79,0.01,RA,,0.01,WeatherDisplay:10.37,2013-06-03 00:42:00,
2013-06-02 20:47:00,72.9,66.0,29.67,WNW,292,0.0,0.0,79,0.01,CLR,,0.01,WeatherDisplay:10.37,2013-06-03 00:47:00,
2013-06-02 20:52:00,72.7,66.5,29.68,South,180,0.0,0.0,81,0.02,RA,,0.02,WeatherDisplay:10.37,2013-06-03 00:52:00,
2013-06-02 20:57:00,72.3,66.5,29.68,ESE,112,2.7,2.7,82,0.02,RA,,0.02,WeatherDisplay:10.37,2013-06-03 00:57:00,
2013-06-02 21:02:00,71.8,66.7,29.68,ENE,68,0.0,0.0,84,0.03,RA,,0.03,WeatherDisplay:10.37,2013-06-03 01:02:00,
2013-06-02 21:07:00,71.8,67.0,29.68,NE,45,0.0,0.0,85,0.03,RA,,0.03,WeatherDisplay:10.37,2013-06-03 01:07:00,
2013-06-02 21:12:00,71.6,66.8,29.68,South,180,0.0,0.0,85,0.03,CLR,,0.03,WeatherDisplay:10.37,2013-06-03 01:12:00,
2013-06-02 21:17:00,71.4,66.7,29.68,East,90,0.0,0.0,85,0.03,CLR,,0.03,WeatherDisplay:10.37,2013-06-03 01:17:00,
2013-06-02 21:22:00,71.4,66.7,29.68,East,90,0.0,0.0,85,0.03,CLR,,0.03,WeatherDisplay:10.37,2013-06-03 01:22:00,
2013-06-02 21:27:00,71.1,66.7,29.68,South,180,0.0,0.0,86,0.03,CLR,,0.03,WeatherDisplay:10.37,2013-06-03 01:27:00,
2013-06-02 21:32:00,70.9,66.5,29.68,ESE,112,0.0,0.0,86,0.03,CLR,,0.03,WeatherDisplay:10.37,2013-06-03 01:32:00,
2013-06-02 21:37:00,70.7,66.6,29.68,West,270,0.0,0.0,87,0.02,CLR,,0.03,WeatherDisplay:10.37,2013-06-03 01:37:00,
2013-06-02 21:42:00,70.5,66.4,29.69,SE,135,2.3,2.3,87,0.02,CLR,,0.03,WeatherDisplay:10.37,2013-06-03 01:42:00,
2013-06-02 21:47:00,70.3,66.6,29.69,NNE,22,0.0,0.0,88,0.02,CLR,,0.03,WeatherDisplay:10.37,2013-06-03 01:47:00,
2013-06-02 21:52:00,70.3,66.6,29.69,NE,45,0.0,0.0,88,0.01,CLR,,0.03,WeatherDisplay:10.37,2013-06-03 01:52:00,
2013-06-02 21:57:00,70.2,66.5,29.69,South,180,0.0,0.0,88,0.01,CLR,,0.03,WeatherDisplay:10.37,2013-06-03 01:57:00,
2013-06-02 22:02:00,70.0,66.3,29.68,South,180,0.0,0.0,88,0.00,CLR,,0.03,WeatherDisplay:10.37,2013-06-03 02:02:00,
2013-06-02 22:07:00,69.8,66.1,29.68,South,180,0.0,0.0,88,0.00,CLR,,0.03,WeatherDisplay:10.37,2013-06-03 02:07:00,
2013-06-02 22:12:00,69.8,66.1,29.68,South,180,0.0,0.0,88,0.00,CLR,,0.03,WeatherDisplay:10.37,2013-06-03 02:12:00,
2013-06-02 22:17:00,69.6,65.9,29.68,ENE,68,0.0,0.0,88,0.00,CLR,,0.03,WeatherDisplay:10.37,2013-06-03 02:17:00,
2013-06-02 22:22:00,69.6,66.2,29.68,NNE,22,0.0,0.0,89,0.00,CLR,,0.03,WeatherDisplay:10.37,2013-06-03 02:22:00,
2013-06-02 22:27:00,69.4,66.3,29.68,WNW,292,0.0,0.0,90,0.00,CLR,,0.03,WeatherDisplay:10.37,2013-06-03 02:27:00,
2013-06-02 22:32:00,69.4,66.3,29.68,SSE,158,0.0,0.0,90,0.00,CLR,,0.03,WeatherDisplay:10.37,2013-06-03 02:32:00,
2013-06-02 22:37:00,69.4,66.3,29.68,SE,135,0.0,0.0,90,0.00,CLR,,0.03,WeatherDisplay:10.37,2013-06-03 02:37:00,
2013-06-02 22:42:00,69.4,66.3,29.68,SSE,158,0.0,0.0,90,0.00,CLR,,0.03,WeatherDisplay:10.37,2013-06-03 02:42:00,
2013-06-02 22:47:00,69.3,66.2,29.68,West,270,0.0,0.0,90,0.00,CLR,,0.03,WeatherDisplay:10.37,2013-06-03 02:47:00,
2013-06-02 22:52:00,69.3,66.2,29.68,South,180,2.3,2.3,90,0.00,CLR,,0.03,WeatherDisplay:10.37,2013-06-03 02:52:00,
2013-06-02 22:57:00,69.1,66.0,29.68,East,90,0.0,0.0,90,0.00,CLR,,0.03,WeatherDisplay:10.37,2013-06-03 02:57:00,
2013-06-02 23:02:00,68.9,65.8,29.68,East,90,1.2,0.0,90,0.00,CLR,,0.03,WeatherDisplay:10.37,2013-06-03 03:02:00,
2013-06-02 23:07:00,68.9,65.8,29.68,South,180,0.0,0.0,90,0.00,CLR,,0.03,WeatherDisplay:10.37,2013-06-03 03:07:00,
2013-06-02 23:12:00,68.5,65.4,29.68,South,180,0.0,0.0,90,0.00,CLR,,0.03,WeatherDisplay:10.37,2013-06-03 03:12:00,
2013-06-02 23:17:00,68.7,66.0,29.68,NNE,22,0.0,0.0,91,0.00,CLR,,0.03,WeatherDisplay:10.37,2013-06-03 03:17:00,
2013-06-02 23:22:00,68.7,66.0,29.68,ENE,68,2.3,2.3,91,0.00,CLR,,0.03,WeatherDisplay:10.37,2013-06-03 03:22:00,
2013-06-02 23:27:00,68.7,66.0,29.68,ESE,112,1.2,0.0,91,0.00,CLR,,0.03,WeatherDisplay:10.37,2013-06-03 03:27:00,
2013-06-02 23:32:00,68.5,65.8,29.68,South,180,1.7,1.7,91,0.00,CLR,,0.03,WeatherDisplay:10.37,2013-06-03 03:32:00,
2013-06-02 23:37:00,68.7,66.0,29.68,ENE,68,0.0,0.0,91,0.00,CLR,,0.03,WeatherDisplay:10.37,2013-06-03 03:37:00,
2013-06-02 23:42:00,68.7,66.0,29.68,East,90,0.0,0.0,91,0.00,CLR,,0.03,WeatherDisplay:10.37,2013-06-03 03:42:00,
2013-06-02 23:47:00,68.5,65.8,29.68,ESE,112,0.0,0.0,91,0.00,CLR,,0.03,WeatherDisplay:10.37,2013-06-03 03:47:00,
2013-06-02 23:53:00,68.5,65.8,29.68,NNE,22,0.0,0.0,91,0.00,CLR,,0.03,WeatherDisplay:10.37,2013-06-03 03:53:00,
2013-06-02 23:58:00,68.5,65.8,29.68,WNW,292,0.0,0.0,91,0.00,CLR,,0.03,WeatherDisplay:10.37,2013-06-03 03:58:00,